Regional Weather Roundup
Issued by NWS Kansas City/Pleasant Hill, MO

Home | Current Version | Previous Version | Graphics & Text | Print | Product List | Glossary Off
Versions: 1 2 3 4 5 6 7 8 9 10 11 12 13 14 15 16 17 18 19 20 21 22 23 24 25 26 27

000
ASUS43 KEAX 250810
RWREAX

WEATHER ROUNDUP FOR EASTERN KANSAS AND NORTHWEST MISSOURI
NATIONAL WEATHER SERVICE KANSAS CITY/PLEASANT HILL MO
300 AM CDT WED MAY 25 2016

KSZ040-057-103>105-MOZ028-029-037-043-250900-
...KANSAS CITY METROPOLITAN AREA...

CITY           SKY/WX    TMP DP  RH WIND       PRES   REMARKS
K.C. INTL      DRIZZLE   68  61  78 W14G22    29.93R
K.C. DOWNTOWN  LGT RAIN  69  64  84 SW10      29.94R
LEES SUMMIT    LGT RAIN  67  63  87 W12       29.95R
OLATHE - IXD   TSTM      63  62  97 NW5       29.95F
OLATHE - OJC   TSTM      63  61  93 S5        29.96R
LAWRENCE         N/A     64  62  93 W9        29.95R

$$

MOZ001>008-011>017-020>025-030>033-038>040-044>046-053-054-250900-
...NORTHERN AND CENTRAL MISSOURI...

CITY           SKY/WX    TMP DP  RH WIND       PRES   REMARKS
ST. JOSEPH     CLOUDY    67  61  81 W6        29.90R
MOSBY          RAIN      66  61  82 SW7       29.93R
WARRENSBURG    CLOUDY    61  59  94 CALM      29.92S
WHITEMAN AFB   MOCLDY    61  61 100 S5        29.90F
CLINTON        CLOUDY    63  63 100 CALM      29.93S
SEDALIA        PTCLDY    62  60  93 SE5       29.93F
WARSAW         NOT AVBL
CHILLICOTHE      N/A     67  63  87 S7        29.89F
KIRKSVILLE     MOCLDY    63  62  97 S8        29.92F

$$

MOZ041-047>049-056>058-063>065-088>090-097-250900-
...EASTERN AND SOUTHERN MISSOURI...

CITY           SKY/WX    TMP DP  RH WIND       PRES   REMARKS
ST. LOUIS INTL CLOUDY    67  61  81 SE8       29.98F
SPIRIT OF STL  CLOUDY    61  61 100 E5        29.96F
COLUMBIA       CLOUDY    62  61  96 SE7       29.94F
JEFFERSON CITY CLOUDY    61  60  97 SE6       29.95R
ROLLA          CLEAR     60  59  96 S8        29.96R
SPRINGFIELD    MOCLDY    65  62  90 SE10      29.95F
JOPLIN         CLOUDY    73  66  78 S13G21    29.87F
WEST PLAINS    CLOUDY    61  58  90 S5        30.00R

$$

IAZ060-094-KSZ022-034>040-054-083-096-NEZ052-066-093-250900-
...KANSAS...SOUTHEAST NEBRASKA AND IOWA...

CITY           SKY/WX    TMP DP  RH WIND       PRES   REMARKS
TOPEKA         TSTM      64  61  90 CALM      29.92S FOG
MANHATTAN        N/A     63  32  31 SE6       29.85
EMPORIA        LGT RAIN  62  60  93 SE12      29.96R
CHANUTE        CLOUDY    66  59  78 N15G25    29.94F
WICHITA        TSTM      63  61  93 SE25G33   29.87S
OMAHA          TSTM      66  60  81 CALM      29.81F
LINCOLN        LGT RAIN  64  59  83 SE28G36   29.67F
FALLS CITY     LGT RAIN  64  62  93 SW8       29.84F
LAMONI         CLOUDY    65  64  97 S8        29.85F
DES MOINES     CLOUDY    68  63  84 E7        29.84F

$$





USA.gov is the U.S. government's official web portal to all federal, state and local government web resources and services.